Regional Weather Roundup
Issued by NWS

Home | Current Version | Previous Version | Graphics & Text | Print | Product List | Glossary On
Versions: 1 2 3 4 5 6 7 8 9 10 11 12 13 14 15 16 17 18 19 20 21 22 23 24 25 26 27 28 29 30 31 32 33 34 35 36 37 38 39 40 41 42 43 44 45 46 47 48 49 50
000
ASUS43 KBIS 101310
RWRND

NORTH DAKOTA REGIONAL WEATHER ROUNDUP
NATIONAL WEATHER SERVICE BISMARCK ND
700 AM CST SUN DEC 10 2017

NOTE: "FAIR" INDICATES FEW OR NO CLOUDS BELOW 12,000 FEET WITH NO
SIGNIFICANT WEATHER AND/OR OBSTRUCTIONS TO VISIBILITY.


NDZ001>003-009>011-017-101400-
NORTHWEST NORTH DAKOTA

CITY           SKY/WX    TMP DP  RH WIND       PRES   REMARKS
WILLISTON      CLOUDY    34  18  52 S6        30.09R
MINOT          CLEAR     33  22  63 W12       29.99S
MINOT AFB      PTCLDY    30  22  72 W12       29.98S
$$

NDZ018>021-031>035-040>046-101400-
SOUTHWEST NORTH DAKOTA

CITY           SKY/WX    TMP DP  RH WIND       PRES   REMARKS
BISMARCK       CLOUDY    30  23  75 S8        30.06S
DICKINSON      CLOUDY    33  18  53 W16       30.07S
GARRISON         N/A     34  21  59 NW9       30.02F
HETTINGER ARPT CLEAR     37  14  38 W23       30.12S
$$

NDZ004>008-012>016-024-026-027-054-101400-
NORTHEAST NORTH DAKOTA

CITY           SKY/WX    TMP DP  RH WIND       PRES   REMARKS
GRAND FORKS    CLOUDY    17  15  92 NW8       30.03R WCI   7
GRND FRKS AFB  CLOUDY    16  14  90 NW5       30.02R WCI   9
DEVILS LAKE    CLOUDY    20  18  92 CALM      29.98S
$$

NDZ022-023-025-028>030-036>039-047>053-101400-
SOUTHEAST NORTH DAKOTA

CITY           SKY/WX    TMP DP  RH WIND       PRES   REMARKS
FARGO          CLOUDY    20  17  88 NW8       30.01R WCI  10
JAMESTOWN      CLOUDY    27  24  89 NW7       29.99S WCI  19
$$





USA.gov is the U.S. government's official web portal to all federal, state and local government web resources and services.